| time (UTC) | temp F | wind direction | speed MPH | gust MPH | rain 1hr in | rain 24hr in | rain mn in | humidity % | barometer mb |
| 20260506133535 | 65 | 114 | 0.0 | 2.0 | 0.00 | 0.05 | 0.05 | 62 | 1018.7 |
| 20260506132525 | 65 | 124 | 0.0 | 3.0 | 0.00 | 0.05 | 0.05 | 62 | 1018.7 |
| 20260506131515 | 66 | 124 | 1.0 | 3.0 | 0.00 | 0.05 | 0.05 | 61 | 1018.8 |
| 20260506130606 | 67 | 106 | 1.0 | 2.0 | 0.00 | 0.05 | 0.05 | 61 | 1018.8 |
| 20260506125557 | 67 | 116 | 0.0 | 2.0 | 0.00 | 0.05 | 0.05 | 60 | 1018.7 |
| 20260506124546 | 67 | 179 | 0.0 | 3.0 | 0.00 | 0.05 | 0.05 | 60 | 1018.7 |
| 20260506123537 | 67 | 138 | 1.0 | 3.0 | 0.00 | 0.05 | 0.05 | 60 | 1018.8 |
| 20260506122526 | 67 | 121 | 1.0 | 4.0 | 0.00 | 0.05 | 0.05 | 60 | 1018.9 |
| 20260506121517 | 67 | 133 | 1.0 | 3.0 | 0.00 | 0.05 | 0.05 | 58 | 1018.7 |
| 20260506120607 | 68 | 199 | 1.0 | 3.0 | 0.00 | 0.05 | 0.05 | 60 | 1018.8 |
| 20260506115558 | 67 | 100 | 0.0 | 3.0 | 0.00 | 0.05 | 0.05 | 64 | 1018.7 |
| 20260506114548 | 67 | 127 | 1.0 | 4.0 | 0.00 | 0.05 | 0.05 | 66 | 1018.9 |
| 20260506113538 | 66 | 133 | 1.0 | 4.0 | 0.00 | 0.05 | 0.05 | 67 | 1018.7 |
| 20260506112528 | 65 | 140 | 2.0 | 9.0 | 0.00 | 0.05 | 0.05 | 69 | 1018.7 |
| 20260506111518 | 65 | 169 | 3.0 | 14.0 | 0.00 | 0.05 | 0.05 | 68 | 1018.7 |
| 20260506110628 | 64 | 154 | 4.0 | 10.0 | 0.00 | 0.05 | 0.05 | 72 | 1018.8 |
| 20260506105559 | 63 | 153 | 6.0 | 18.0 | 0.00 | 0.05 | 0.05 | 74 | 1019.0 |
| 20260506104608 | 62 | 146 | 2.0 | 10.0 | 0.00 | 0.05 | 0.05 | 77 | 1018.9 |
| 20260506103538 | 61 | 151 | 7.0 | 15.0 | 0.00 | 0.05 | 0.05 | 77 | 1018.9 |
| 20260506102548 | 62 | 149 | 4.0 | 15.0 | 0.00 | 0.05 | 0.05 | 76 | 1018.8 |
| 20260506101518 | 60 | 148 | 10.0 | 18.0 | 0.00 | 0.05 | 0.05 | 78 | 1018.8 |
| 20260506100609 | 60 | 167 | 8.0 | 17.0 | 0.00 | 0.05 | 0.05 | 79 | 1018.7 |
| 20260506095620 | 60 | 140 | 6.0 | 14.0 | 0.00 | 0.05 | 0.05 | 79 | 1018.8 |
| 20260506094609 | 58 | 146 | 11.0 | 21.0 | 0.00 | 0.05 | 0.05 | 82 | 1018.6 |
| 20260506093540 | 57 | 135 | 9.0 | 16.0 | 0.00 | 0.05 | 0.05 | 84 | 1018.9 |
| 20260506092529 | 56 | 159 | 7.0 | 13.0 | 0.00 | 0.05 | 0.05 | 84 | 1018.9 |
| 20260506091519 | 56 | 158 | 6.0 | 15.0 | 0.00 | 0.05 | 0.05 | 83 | 1018.8 |
| 20260506090610 | 56 | 159 | 7.0 | 14.0 | 0.00 | 0.05 | 0.05 | 82 | 1018.8 |
| 20260506085601 | 56 | 153 | 6.0 | 15.0 | 0.00 | 0.05 | 0.05 | 84 | 1018.7 |
| 20260506084551 | 56 | 144 | 4.0 | 15.0 | 0.00 | 0.05 | 0.05 | 84 | 1018.8 |
| 20260506083540 | 57 | 147 | 7.0 | 16.0 | 0.00 | 0.05 | 0.05 | 82 | 1018.6 |
| 20260506082530 | 57 | 155 | 9.0 | 15.0 | 0.00 | 0.05 | 0.05 | 82 | 1018.3 |
| 20260506081520 | 57 | 141 | 7.0 | 15.0 | 0.00 | 0.05 | 0.05 | 81 | 1018.2 |
| 20260506080631 | 57 | 156 | 7.0 | 19.0 | 0.00 | 0.05 | 0.05 | 81 | 1018.1 |
| 20260506072531 | 56 | 152 | 12.0 | 16.0 | 0.00 | 0.05 | 0.05 | 81 | 1018.3 |
| 20260506071521 | 55 | 158 | 9.0 | 15.0 | 0.01 | 0.05 | 0.05 | 82 | 1018.5 |
| 20260506070612 | 55 | 142 | 8.0 | 14.0 | 0.01 | 0.05 | 0.05 | 84 | 1018.6 |
| 20260506061522 | 55 | 157 | 7.0 | 15.0 | 0.02 | 0.18 | 0.04 | 84 | 1018.8 |
| 20260506060613 | 55 | 153 | 9.0 | 15.0 | 0.03 | 0.22 | 0.04 | 84 | 1018.6 |
| 20260506050614 | 56 | 151 | 8.0 | 14.0 | 0.00 | 0.27 | 0.01 | 80 | 1018.6 |
| 20260506044554 | 56 | 156 | 7.0 | 13.0 | 0.00 | 0.27 | 0.01 | 81 | 1018.8 |
| 20260506043545 | 55 | 155 | 6.0 | 13.0 | 0.00 | 0.28 | 0.01 | 82 | 1018.9 |
| 20260506042536 | 55 | 152 | 2.0 | 8.0 | 0.00 | 0.29 | 0.01 | 82 | 1018.9 |
| 20260506041523 | 56 | 143 | 3.0 | 10.0 | 0.00 | 0.30 | 0.01 | 82 | 1018.8 |
| 20260506040614 | 56 | 148 | 6.0 | 9.0 | 0.00 | 0.30 | 0.01 | 81 | 1018.7 |
| 20260506035609 | 56 | 165 | 7.0 | 11.0 | 0.00 | 0.32 | 0.01 | 82 | 1018.7 |
| 20260506034556 | 56 | 168 | 3.0 | 9.0 | 0.00 | 0.33 | 0.01 | 81 | 1018.7 |
| 20260506033545 | 57 | 151 | 2.0 | 8.0 | 0.00 | 0.35 | 0.01 | 80 | 1018.8 |
| 20260506032535 | 57 | 148 | 8.0 | 11.0 | 0.00 | 0.36 | 0.01 | 79 | 1018.7 |
| 20260506031545 | 57 | 148 | 6.0 | 9.0 | 0.00 | 0.38 | 0.01 | 79 | 1018.9 |
| 20260506025607 | 57 | 154 | 7.0 | 10.0 | 0.01 | 0.41 | 0.01 | 80 | 1019.0 |
| 20260506024556 | 56 | 155 | 8.0 | 10.0 | 0.01 | 0.41 | 0.01 | 80 | 1019.0 |
| 20260506023546 | 56 | 160 | 6.0 | 9.0 | 0.01 | 0.41 | 0.01 | 80 | 1019.1 |
| 20260506022556 | 54 | 158 | 8.0 | 14.0 | 0.01 | 0.41 | 0.01 | 81 | 1019.2 |
| 20260506021526 | 54 | 152 | 8.0 | 11.0 | 0.01 | 0.41 | 0.01 | 81 | 1019.4 |
| 20260506020516 | 55 | 138 | 4.0 | 9.0 | 0.00 | 0.40 | 0.00 | 82 | 1019.5 |
| 20260506015608 | 56 | 144 | 7.0 | 10.0 | 0.00 | 0.40 | 0.00 | 78 | 1019.5 |
| 20260506014618 | 56 | 156 | 7.0 | 13.0 | 0.00 | 0.40 | 0.00 | 77 | 1019.4 |
| 20260506013548 | 56 | 165 | 7.0 | 13.0 | 0.00 | 0.40 | 0.00 | 76 | 1019.3 |
| 20260506012537 | 57 | 153 | 9.0 | 11.0 | 0.00 | 0.40 | 0.00 | 74 | 1019.2 |
| 20260506011528 | 57 | 154 | 11.0 | 15.0 | 0.00 | 0.40 | 0.00 | 71 | 1019.2 |
| 20260506010537 | 57 | 154 | 11.0 | 16.0 | 0.00 | 0.40 | 0.00 | 67 | 1019.0 |
| 20260506005609 | 57 | 160 | 10.0 | 16.0 | 0.00 | 0.40 | 0.00 | 67 | 1019.2 |
| 20260506004559 | 57 | 161 | 8.0 | 15.0 | 0.00 | 0.40 | 0.00 | 66 | 1019.3 |
| 20260506003548 | 57 | 154 | 9.0 | 16.0 | 0.00 | 0.40 | 0.00 | 69 | 1019.5 |
| 20260506002538 | 56 | 151 | 10.0 | 14.0 | 0.00 | 0.40 | 0.00 | 71 | 1019.4 |
| 20260506001528 | 56 | 154 | 4.0 | 10.0 | 0.00 | 0.40 | 0.00 | 73 | 1019.8 |
| 20260506000538 | 55 | 152 | 4.0 | 14.0 | 0.00 | 0.40 | 0.00 | 74 | 1019.7 |
| 20260505235610 | 55 | 157 | 2.0 | 9.0 | 0.00 | 0.40 | 0.00 | 76 | 1019.7 |
| 20260505234600 | 55 | 151 | 4.0 | 13.0 | 0.00 | 0.40 | 0.00 | 77 | 1019.8 |
| 20260505233549 | 55 | 136 | 4.0 | 11.0 | 0.00 | 0.40 | 0.00 | 77 | 1019.8 |
| 20260505232559 | 56 | 150 | 5.0 | 13.0 | 0.00 | 0.40 | 0.00 | 76 | 1019.8 |
| 20260505231529 | 56 | 152 | 4.0 | 11.0 | 0.00 | 0.40 | 0.00 | 74 | 1019.8 |
| 20260505230519 | 56 | 148 | 4.0 | 13.0 | 0.00 | 0.40 | 0.00 | 73 | 1019.7 |
| 20260505225610 | 56 | 161 | 4.0 | 11.0 | 0.00 | 0.40 | 0.00 | 74 | 1019.8 |
| 20260505224620 | 56 | 144 | 4.0 | 9.0 | 0.00 | 0.40 | 0.00 | 74 | 1020.0 |
| 20260505223550 | 56 | 137 | 5.0 | 10.0 | 0.00 | 0.40 | 0.00 | 75 | 1020.0 |
| 20260505222540 | 56 | 148 | 5.0 | 16.0 | 0.00 | 0.40 | 0.00 | 75 | 1020.0 |
| 20260505221530 | 56 | 143 | 3.0 | 11.0 | 0.00 | 0.40 | 0.00 | 74 | 1020.4 |
| 20260505220521 | 56 | 157 | 1.0 | 7.0 | 0.00 | 0.40 | 0.00 | 74 | 1020.5 |
| 20260505215611 | 56 | 137 | 6.0 | 15.0 | 0.00 | 0.40 | 0.40 | 74 | 1020.4 |
| 20260505214601 | 56 | 152 | 5.0 | 14.0 | 0.00 | 0.40 | 0.40 | 75 | 1020.4 |
| 20260505213551 | 56 | 146 | 4.0 | 8.0 | 0.00 | 0.40 | 0.40 | 77 | 1020.5 |
| 20260505212601 | 55 | 160 | 2.0 | 6.0 | 0.00 | 0.40 | 0.40 | 78 | 1020.6 |
| 20260505211531 | 55 | 128 | 1.0 | 7.0 | 0.00 | 0.40 | 0.40 | 77 | 1020.7 |
| 20260505210522 | 55 | 146 | 3.0 | 8.0 | 0.00 | 0.40 | 0.40 | 77 | 1021.0 |
| 20260505205612 | 55 | 158 | 1.0 | 6.0 | 0.00 | 0.40 | 0.40 | 77 | 1021.1 |
| 20260505204602 | 55 | 127 | 2.0 | 6.0 | 0.00 | 0.40 | 0.40 | 78 | 1020.8 |
| 20260505203552 | 55 | 158 | 1.0 | 8.0 | 0.00 | 0.40 | 0.40 | 78 | 1020.7 |
| 20260505202544 | 55 | 170 | 2.0 | 8.0 | 0.00 | 0.40 | 0.40 | 78 | 1020.8 |
| 20260505201532 | 55 | 131 | 2.0 | 8.0 | 0.00 | 0.40 | 0.40 | 78 | 1020.8 |
| 20260505200522 | 56 | 160 | 1.0 | 2.0 | 0.00 | 0.40 | 0.40 | 78 | 1021.0 |
| 20260505195614 | 56 | 139 | 0.0 | 3.0 | 0.00 | 0.40 | 0.40 | 78 | 1020.7 |
| 20260505194604 | 57 | 147 | 1.0 | 2.0 | 0.00 | 0.40 | 0.40 | 78 | 1020.8 |
| 20260505193554 | 57 | 0.0 | 0.0 | 0.00 | 0.40 | 0.40 | 78 | 1020.6 | |
| 20260505192544 | 57 | 190 | 0.0 | 2.0 | 0.00 | 0.40 | 0.40 | 77 | 1020.4 |
| 20260505191534 | 57 | 130 | 1.0 | 6.0 | 0.00 | 0.40 | 0.40 | 77 | 1020.4 |
| 20260505190524 | 56 | 152 | 1.0 | 4.0 | 0.00 | 0.40 | 0.40 | 77 | 1020.4 |
| 20260505185614 | 56 | 142 | 4.0 | 8.0 | 0.00 | 0.40 | 0.40 | 77 | 1020.3 |
| 20260505184645 | 57 | 155 | 0.0 | 3.0 | 0.00 | 0.40 | 0.40 | 76 | 1020.3 |
| 20260505183554 | 57 | 127 | 0.0 | 7.0 | 0.00 | 0.40 | 0.40 | 76 | 1020.5 |
| 20260505182544 | 57 | 159 | 1.0 | 4.0 | 0.00 | 0.40 | 0.40 | 76 | 1020.1 |
| 20260505181534 | 57 | 137 | 2.0 | 7.0 | 0.00 | 0.40 | 0.40 | 75 | 1020.1 |
| 20260505180524 | 58 | 146 | 1.0 | 4.0 | 0.00 | 0.40 | 0.40 | 75 | 1020.0 |
| 20260505175616 | 58 | 144 | 1.0 | 9.0 | 0.00 | 0.40 | 0.40 | 74 | 1020.0 |
| 20260505174605 | 59 | 161 | 1.0 | 7.0 | 0.00 | 0.40 | 0.40 | 74 | 1020.1 |
| 20260505173555 | 59 | 151 | 1.0 | 4.0 | 0.00 | 0.40 | 0.40 | 74 | 1020.2 |
| 20260505172545 | 59 | 149 | 0.0 | 2.0 | 0.00 | 0.40 | 0.40 | 74 | 1020.4 |
| 20260505171535 | 59 | 159 | 0.0 | 2.0 | 0.00 | 0.40 | 0.40 | 74 | 1020.4 |
| 20260505170547 | 60 | 140 | 0.0 | 1.0 | 0.00 | 0.40 | 0.40 | 74 | 1020.4 |
| 20260505165515 | 60 | 128 | 0.0 | 2.0 | 0.00 | 0.40 | 0.40 | 74 | 1020.5 |
| 20260505164607 | 60 | 145 | 0.0 | 3.0 | 0.00 | 0.40 | 0.40 | 72 | 1020.5 |
| 20260505163556 | 61 | 63 | 0.0 | 4.0 | 0.00 | 0.40 | 0.40 | 72 | 1020.4 |
| 20260505162546 | 61 | 172 | 0.0 | 3.0 | 0.00 | 0.40 | 0.40 | 71 | 1020.2 |
| 20260505161536 | 61 | 132 | 1.0 | 3.0 | 0.00 | 0.40 | 0.40 | 71 | 1020.3 |
| 20260505160528 | 61 | 133 | 2.0 | 10.0 | 0.00 | 0.40 | 0.40 | 72 | 1020.4 |
| 20260505152547 | 61 | 142 | 2.0 | 7.0 | 0.00 | 0.40 | 0.40 | 71 | 1020.5 |
| 20260505151537 | 60 | 151 | 5.0 | 15.0 | 0.00 | 0.40 | 0.40 | 72 | 1020.5 |
| 20260505150527 | 61 | 158 | 4.0 | 14.0 | 0.00 | 0.40 | 0.40 | 72 | 1020.5 |
| 20260505140529 | 59 | 151 | 8.0 | 15.0 | 0.00 | 0.40 | 0.40 | 75 | 1020.8 |